[[{"header":{"parameterUnit":"m.s-1","parameterCategory":1,"la1":30.2991,"la2":30.254,"lo1":-89.0895,"lo2":-89.0444,"dy":0.0017,"dx":0.0017,"nx":28,"ny":28,"refTime":"2024-07-08T21:00:00:Z","depth":0,"parameterNumber":2,"parameterNumberName":"U-component_of_WINDS"},"data":[0,0,0,0,0,0,0,0,0,0,0,0,0,0,0,0,0,0,0,0,0,0,0,0,0,0,0,0,0,0,0,0,0,0,0,0,0,0,0,0,0,0,0,0,0,0,0,0,0,0,0,0,0,0,0,0,0,0,5.1536,5.1537,0,5.1628,5.1629,5.163,5.1571,5.1568,5.1565,5.1563,5.1654,5.1659,5.1664,0,0,0,0,0,0,0,0,0,0,0,0,0,5.1307,5.1311,5.1536,5.1537,5.1538,5.1627,5.1629,5.163,5.1571,5.1568,5.1565,5.1561,5.1653,5.1659,5.1665,0,0,0,0,0,0,0,0,0,0,0,0,0,5.1403,5.1313,5.1536,5.152,5.1519,5.1627,5.1629,5.163,5.1572,5.1568,5.1564,5.156,5.1651,5.1658,5.1666,5.1794,0,0,5.1688,5.1692,0,0,0,0,0,0,0,0,5.1398,5.1412,5.1521,5.1521,5.1521,5.1584,5.1581,5.1685,5.1573,5.1552,5.1563,5.1558,5.1634,5.1643,5.1669,5.1798,5.1802,5.1689,5.1694,5.1697,5.1699,0,0,0,0,0,0,0,5.1391,5.1407,5.1572,5.1523,5.1522,5.1507,5.1516,5.1601,5.1615,5.1553,5.1549,5.1561,5.1633,5.1662,5.167,5.1803,5.1689,5.1695,5.17,5.1703,5.2039,5.2043,0,0,0,0,0,0,5.1386,5.1402,5.1569,5.1575,5.1448,5.1514,5.1525,5.1567,5.1614,5.1617,5.1564,5.1558,5.1651,5.1662,5.1673,5.1824,5.1697,5.1704,5.1708,5.2035,5.204,5.2045,0,0,0,0,0,0,5.1381,5.1402,5.1565,5.1487,5.1507,5.1523,5.1571,5.1571,5.16,5.1622,5.1624,5.1591,5.1648,5.1663,5.1764,5.1826,5.1707,5.1714,5.2029,5.2036,5.2042,5.2127,0,0,0,0,0,0,5.1375,5.14,5.145,5.1489,5.1512,5.1655,5.1575,5.1576,5.1613,5.1606,5.1648,5.1651,5.1646,5.1753,5.1771,5.1834,5.172,5.2024,5.2032,5.204,5.2119,5.2136,5.2151,0,0,0,0,0,5.1367,5.1471,5.1453,5.1473,5.1574,5.1659,5.1672,5.1665,5.1619,5.1668,5.1682,5.1649,5.1817,5.1764,5.1784,5.185,5.202,5.203,5.204,5.2112,5.2133,5.215,0,0,0,0,0,0,5.1438,5.1475,5.1456,5.1575,5.1615,5.1649,5.1711,5.1688,5.174,5.1731,5.1719,5.1729,5.1834,5.1853,5.1792,5.1975,5.1911,5.1925,5.1959,5.1979,5.1995,5.1987,5.1726,0,0,0,0,0,5.1468,5.1534,5.1563,5.1666,5.1686,5.1696,5.1732,5.1724,5.1763,5.1779,5.1801,5.184,5.1901,5.1941,5.1999,5.2122,5.2129,5.2178,5.2194,5.2207,5.2218,5.2282,5.2303,5.2078,5.2077,5.2077,0,0,5.1529,5.1558,5.1601,5.168,5.171,5.1777,5.171,5.1785,5.1834,5.1791,5.1886,5.1904,5.1946,5.2058,5.2108,5.2076,5.2282,5.2219,5.223,5.2234,5.2294,5.2315,5.2334,5.2084,5.2083,5.2082,0,0,5.1675,5.1705,5.1792,5.1823,5.1868,5.1873,5.1894,5.1932,5.1942,5.2038,5.2006,5.2064,5.2171,5.2202,5.2231,5.2388,5.2359,5.2408,5.249,5.2552,5.2569,5.2585,5.2638,5.2657,5.242,5.242,5.242,0,5.1745,5.1847,5.1839,5.1917,5.1951,5.1916,5.2002,5.2032,5.2094,5.2118,5.2083,5.2214,5.2241,5.2357,5.2395,5.2422,5.2443,5.2402,5.2568,5.2583,5.2598,5.2648,5.2668,5.2426,5.2425,5.2424,5.2424,0,5.1929,5.2001,5.2066,5.2126,5.2168,5.225,5.2253,5.2297,5.2285,5.2294,5.2391,5.2422,5.2483,5.2511,5.25,5.2626,5.2605,5.2569,5.2503,5.2624,5.2671,5.2691,5.2433,5.2431,5.243,5.2428,0,0,5.2121,5.2176,5.22,5.2225,5.2273,5.2327,5.2406,5.2467,5.2504,5.2548,5.2612,5.2703,5.2669,5.2703,5.2695,5.275,5.2869,5.2707,5.2708,5.2733,5.3006,5.303,5.3053,5.2851,5.2855,5.2858,5.3001,0,5.2267,5.2406,5.2401,5.253,5.2594,5.2561,5.263,5.2665,5.2676,5.273,5.2741,5.2805,5.2757,5.2777,5.283,5.2843,5.2923,5.2833,5.2908,5.2911,5.2895,5.3078,5.3104,5.3238,5.302,5.3023,5.3025,0,5.2456,5.2506,5.2641,5.2677,5.2704,5.2766,5.282,5.2874,5.2913,5.2916,5.2954,5.2937,5.3015,5.295,5.3057,5.2996,5.3027,5.3038,5.3043,5.3047,5.2973,5.3084,5.3281,5.33,5.3054,5.3052,5.305,0,5.2578,5.2679,5.2773,5.2796,5.2841,5.2885,5.2906,5.2941,5.2977,5.3025,5.3048,5.3104,5.3134,5.3178,5.3176,5.3129,5.3283,5.3218,5.3286,5.3286,5.3317,5.3315,5.3519,5.3343,5.3343,5.3342,5.3342,0,5.274,5.2823,5.2828,5.2885,5.2976,5.297,5.306,5.3076,5.3108,5.3166,5.3142,5.3197,5.3192,5.3248,5.3247,5.3333,5.3348,5.3351,5.335,5.3352,5.3351,5.3369,5.3359,5.3348,5.3346,5.3345,5.3344,0,5.289,5.2897,5.2996,5.3031,5.3041,5.3107,5.3135,5.3189,5.3197,5.3271,5.3288,5.3301,5.3364,5.3368,5.3441,5.344,5.3545,5.3535,5.3532,5.3528,5.3594,5.3587,5.3815,5.3843,5.3652,5.3654,5.3656,0,5.2991,5.3055,5.3096,5.3133,5.3156,5.3218,5.3254,5.325,5.3289,5.3338,5.3385,5.3446,5.3495,5.3598,5.3613,5.3668,5.3657,5.3733,5.3665,5.3664,5.3654,5.3649,5.3654,5.3745,5.3747,5.3749,5.375,0,5.3169,5.3169,5.3224,5.3279,5.3324,5.3367,5.3408,5.3439,5.344,5.3485,5.355,5.3587,5.3662,5.3722,5.3776,5.3796,5.3773,5.3772,5.379,5.3791,5.3786,5.3786,5.3564,5.3766,5.3765,5.3763,5.3763,5.3762,5.3296,5.3349,5.3386,5.3447,5.3477,5.3515,5.3566,5.358,5.3635,5.3695,5.369,5.3761,5.3796,5.3866,5.3891,5.3945,5.3919,5.3946,5.3952,5.3958,5.3963,5.378,5.3956,5.3955,5.3955,5.3954,5.3954,0,5.3469,5.3491,5.3547,5.3604,5.3652,5.3627,5.367,5.3711,5.3774,5.381,5.3858,5.3931,5.399,5.4009,5.4065,5.4105,5.4096,5.412,5.4115,5.4119,5.3985,5.3962,5.4126,5.4126,5.4126,5.4126,5.4126,5.4126,5.3564,5.3653,5.3657,5.3759,5.378,5.385,5.3876,5.3911,5.3939,5.4022,5.407,5.4083,5.4112,5.4169,5.4221,5.4225,5.4245,5.4273,5.4273,5.4146,5.4129,5.4112,5.4091,5.4279,5.4279,5.4402,5.4403,5.4404]},{"header":{"parameterUnit":"m.s-1","parameterCategory":1,"la1":30.2991,"la2":30.254,"lo1":-89.0895,"lo2":-89.0444,"dy":0.0017,"dx":0.0017,"nx":28,"ny":28,"refTime":"2024-07-08T21:00:00:Z","depth":0,"parameterNumber":3,"parameterNumberName":"V-component_of_WINDS"},"data":[0,0,0,0,0,0,0,0,0,0,0,0,0,0,0,0,0,0,0,0,0,0,0,0,0,0,0,0,0,0,0,0,0,0,0,0,0,0,0,0,0,0,0,0,0,0,0,0,0,0,0,0,0,0,0,0,0,0,5.7719,5.772,0,5.7844,5.7845,5.7846,5.7831,5.7829,5.7827,5.7825,5.7946,5.795,5.7955,0,0,0,0,0,0,0,0,0,0,0,0,0,5.746,5.7464,5.7719,5.7721,5.7722,5.7843,5.7845,5.7847,5.7831,5.7829,5.7826,5.7824,5.7944,5.795,5.7956,0,0,0,0,0,0,0,0,0,0,0,0,0,5.7577,5.7466,5.7719,5.7729,5.7731,5.7843,5.7845,5.7847,5.7832,5.7829,5.7826,5.7823,5.7942,5.7949,5.7957,5.8064,0,0,5.798,5.7983,0,0,0,0,0,0,0,0,5.757,5.7586,5.7726,5.7729,5.7731,5.7819,5.7798,5.792,5.7833,5.7793,5.7825,5.7822,5.7905,5.7916,5.7945,5.8069,5.8075,5.7981,5.7985,5.7989,5.7991,0,0,0,0,0,0,0,5.7562,5.7581,5.7768,5.7728,5.7731,5.7725,5.7738,5.7821,5.7864,5.7797,5.7796,5.7811,5.7906,5.7938,5.7948,5.8076,5.798,5.7987,5.7992,5.7995,5.8291,5.8295,0,0,0,0,0,0,5.7552,5.7574,5.7764,5.7772,5.7642,5.7732,5.7747,5.7794,5.7864,5.7872,5.7814,5.781,5.7927,5.7939,5.7952,5.8081,5.7988,5.7996,5.8,5.8288,5.8292,5.8296,0,0,0,0,0,0,5.7547,5.757,5.7759,5.7673,5.7697,5.774,5.7792,5.7798,5.783,5.7877,5.7883,5.7839,5.7925,5.7942,5.8036,5.8085,5.7999,5.8006,5.8284,5.8289,5.8294,5.8339,0,0,0,0,0,0,5.754,5.7568,5.7611,5.7674,5.7701,5.7843,5.7795,5.7802,5.7844,5.784,5.7902,5.7909,5.7924,5.8025,5.8044,5.8094,5.8012,5.828,5.8287,5.8292,5.8334,5.8345,5.8355,0,0,0,0,0,5.753,5.7618,5.7613,5.7636,5.7757,5.7846,5.7862,5.7878,5.7848,5.789,5.792,5.7907,5.8077,5.8035,5.8056,5.8109,5.8277,5.8285,5.8292,5.8329,5.8343,5.8355,0,0,0,0,0,0,5.7557,5.7626,5.7622,5.7733,5.7784,5.7844,5.7898,5.7893,5.7952,5.7946,5.7962,5.7976,5.8071,5.8099,5.8052,5.8215,5.8172,5.8184,5.8193,5.8207,5.8218,5.8208,5.8018,0,0,0,0,0,5.7576,5.7646,5.7701,5.7793,5.782,5.7854,5.7894,5.7903,5.7955,5.7976,5.8013,5.8062,5.8126,5.8168,5.823,5.8338,5.8349,5.8384,5.8395,5.8404,5.8413,5.847,5.8486,5.832,5.832,5.832,0,0,5.7615,5.7662,5.7704,5.78,5.7841,5.791,5.7873,5.7948,5.7998,5.7987,5.8079,5.8107,5.8163,5.8264,5.8311,5.8291,5.8462,5.8413,5.842,5.8425,5.848,5.8495,5.8509,5.8325,5.8324,5.8324,0,0,5.7722,5.7766,5.7847,5.7888,5.7951,5.7973,5.7993,5.8053,5.8072,5.8165,5.8157,5.8216,5.8327,5.8367,5.8402,5.8522,5.8512,5.8542,5.8597,5.8653,5.8666,5.8677,5.8719,5.8733,5.8551,5.8551,5.8552,0,5.7763,5.7869,5.7888,5.7964,5.8005,5.8,5.808,5.8119,5.8198,5.8225,5.8202,5.834,5.8377,5.8487,5.8516,5.8545,5.8565,5.8534,5.8663,5.8675,5.8686,5.8725,5.8741,5.8555,5.8554,5.8554,5.8554,0,5.7915,5.7989,5.8046,5.8124,5.8172,5.8249,5.8277,5.8322,5.8326,5.835,5.8443,5.8488,5.8558,5.8584,5.8588,5.8694,5.8679,5.866,5.8617,5.8704,5.8742,5.8757,5.8559,5.8558,5.8557,5.8556,0,0,5.8043,5.813,5.8151,5.8185,5.8254,5.831,5.8385,5.8456,5.8494,5.8547,5.861,5.8703,5.8685,5.8724,5.8732,5.8781,5.8872,5.8755,5.8756,5.8774,5.8988,5.9002,5.902,5.8866,5.8869,5.8871,5.8983,0,5.8155,5.8293,5.8311,5.8432,5.8499,5.8494,5.856,5.8607,5.8631,5.8689,5.8714,5.878,5.8751,5.8775,5.8823,5.8851,5.8915,5.8843,5.8921,5.8924,5.8907,5.904,5.9055,5.9159,5.8998,5.9,5.9002,0,5.8306,5.8366,5.8494,5.8552,5.858,5.864,5.8705,5.8761,5.8813,5.8827,5.8871,5.8872,5.8948,5.8903,5.9006,5.8956,5.8989,5.9007,5.9012,5.9019,5.8968,5.9049,5.9192,5.9207,5.9026,5.9024,5.9022,0,5.8384,5.8497,5.8588,5.8617,5.8688,5.8729,5.876,5.8809,5.885,5.8906,5.8932,5.8995,5.9029,5.9077,5.9094,5.906,5.9195,5.9152,5.9207,5.9206,5.9235,5.9233,5.9384,5.9258,5.9258,5.9257,5.9257,0,5.8508,5.8586,5.8624,5.8679,5.8766,5.8784,5.8868,5.8897,5.8941,5.9,5.8999,5.9053,5.9074,5.9131,5.9145,5.9227,5.9242,5.9254,5.9256,5.9253,5.9252,5.9274,5.9267,5.9261,5.9261,5.926,5.9259,0,5.861,5.8639,5.8737,5.8796,5.8812,5.8873,5.8921,5.8974,5.8997,5.9071,5.9089,5.9125,5.9192,5.9214,5.9295,5.9304,5.9399,5.9396,5.9382,5.9382,5.9435,5.9429,5.9606,5.9629,5.9488,5.949,5.9491,0,5.8686,5.8747,5.8812,5.8852,5.8885,5.895,5.8992,5.9012,5.9055,5.9119,5.9162,5.923,5.9285,5.9392,5.9422,5.9484,5.9481,5.9539,5.949,5.9485,5.948,5.9476,5.9481,5.9547,5.9549,5.955,5.9551,0,5.8818,5.883,5.8891,5.8958,5.9008,5.9061,5.9112,5.9144,5.9171,5.9219,5.9289,5.9331,5.9414,5.948,5.9543,5.9571,5.9565,5.9566,5.9582,5.9579,5.9568,5.9573,5.9406,5.9562,5.9561,5.956,5.9559,5.9559,5.8909,5.8962,5.9016,5.9084,5.9125,5.9172,5.9224,5.9254,5.9313,5.9384,5.9391,5.9466,5.9514,5.9598,5.9629,5.9686,5.9669,5.9692,5.9698,5.9703,5.9706,5.956,5.9697,5.9697,5.9696,5.9696,5.9696,0,5.904,5.9075,5.9137,5.9209,5.9262,5.9254,5.931,5.9353,5.942,5.9467,5.9521,5.96,5.9664,5.97,5.9763,5.9801,5.9799,5.9817,5.9813,5.9819,5.9718,5.9698,5.9817,5.9817,5.9817,5.9817,5.9816,5.9816,5.9114,5.9203,5.922,5.9327,5.9361,5.9436,5.9468,5.951,5.9548,5.9637,5.9691,5.9714,5.9756,5.9822,5.9879,5.9887,5.991,5.9928,5.9935,5.9839,5.9827,5.9815,5.9796,5.9933,5.9934,6.0031,6.0032,6.0033]}]]